Overview Statistics Trail Chart Weather Telemetry Raw packets
 

This is the latest recevied weather packets stored in our database for station/object KB3AWQ. If no packets are shown the sender has not sent any weather packets the latest 10 day(s).

<< 2 3 4 5 6 7 8 >>
Time Temp. Humidity Pressure Rain* Wind** Luminosity Snow
1788544167 28.33° C 77% 1014.3 hPa 0 mm - 92 W/m² -
1788543866 28.33° C 76% 1014.4 hPa 0 mm - 96 W/m² -
1788543568 28.33° C 75% 1014.3 hPa 0 mm - 103 W/m² -
1788543266 28.33° C 74% 1014.4 hPa 0 mm - 147 W/m² -
1788542967 28.33° C 74% 1014.4 hPa 0 mm - 265 W/m² -
1788542666 28.33° C 75% 1014.4 hPa 0 mm - 546 W/m² -
1788542366 28.33° C 74% 1014.4 hPa 0 mm - 345 W/m² -
1788542067 28.33° C 75% 1014.5 hPa 0 mm - 234 W/m² -
1788541768 28.33° C 75% 1014.4 hPa 0 mm - 286 W/m² -
1788541467 27.78° C 73% 1014.4 hPa 0 mm - 236 W/m² -
1788541168 28.33° C 73% 1014.3 hPa 0 mm - 395 W/m² -
1788540867 28.33° C 74% 1014.3 hPa 0 mm - 204 W/m² -
1788540566 28.33° C 74% 1014.4 hPa 0 mm - 187 W/m² -
1788540267 28.33° C 73% 1014.4 hPa 0 mm - 272 W/m² -
1788539966 28.33° C 73% 1014.4 hPa 0 mm - 514 W/m² -
1788539666 28.33° C 73% 1014.5 hPa 0 mm - 263 W/m² -
1788539367 28.33° C 73% 1014.5 hPa 0 mm - 526 W/m² -
1788539066 28.89° C 72% 1014.6 hPa 0 mm - 430 W/m² -
1788538769 28.89° C 72% 1014.6 hPa 0 mm - 487 W/m² -
1788538178 28.89° C 71% 1014.7 hPa 0 mm - 828 W/m² -
1788537866 28.89° C 73% 1014.7 hPa 0 mm - 789 W/m² -
1788537567 28.89° C 71% 1014.8 hPa 0 mm - 840 W/m² -
1788537267 28.33° C 72% 1014.9 hPa 0 mm - 865 W/m² -
1788536967 28.33° C 73% 1014.9 hPa 0 mm - 883 W/m² -
1788536667 28.89° C 70% 1015 hPa 0 mm - 458 W/m² -

* Rain latest hour (hover to see other rain measurements)
** Current wind speed in m/s (hover to see current wind gust speed)